Sun Globe — 9HA2857 — position and weather

sailwx.info

Track history (hours):
 
Tides and Currents Weather Stations Pressure Air Temp Water Temp Dewpoint Dewpoint Depression Visibility Wind Speed Wind Dir Waves Ship Positions

Sun Globe

Last reported at 2015-May-29 22:08 UTC. Time now 2015-May-30 02:31 UTC.
Position N 37°40' E 008°24'.

Length 190 m; draft 10.2 m.

Type: Cargo ship. MMSI: 256415000.

Date/timePositionNaut miles runAvg speedWind from/ knotsBaromVisibWave heightAir tempDewpointWater temp
2015-May-29 22:08N 37°40' E 008°24'2514.2
2015-May-29 20:21N 37°43' E 008°56'1613.4
2015-May-29 19:11N 37°42' E 009°16'813.5
2015-May-29 18:33N 37°42' E 009°26'1413.5
2015-May-29 17:33N 37°41' E 009°44'1413.4
2015-May-29 16:33N 37°40' E 010°01'1313.0
2015-May-29 15:32N 37°39' E 010°17'1313.0
2015-May-29 14:32N 37°37' E 010°33'1313.2
2015-May-29 13:33N 37°34' E 010°49'1312.9
2015-May-29 12:33N 37°30' E 011°05'1313.2
2015-May-29 11:33N 37°24' E 011°20'1313.4
2015-May-29 10:33N 37°19' E 011°35'1313.3
2015-May-29 09:33N 37°13' E 011°50'1513.6
2015-May-29 08:27N 37°07' E 012°07'1213.1
2015-May-29 07:33N 37°02' E 012°21'1312.9
2015-May-29 06:33N 36°57' E 012°36'4013.4
2015-May-29 03:33N 36°45' E 013°23'1313.2
2015-May-29 02:33N 36°40' E 013°39'1313.1
2015-May-29 01:33N 36°36' E 013°54'1313.4
2015-May-29 00:33N 36°32' E 014°10'1313.4
2015-May-28 23:33N 36°29' E 014°26'1313.0
2015-May-28 22:33N 36°27' E 014°42'44412.3
2015-May-27 10:33N 37°02' E 023°54'3213.8
2015-May-27 08:15N 37°27' E 024°19'1413.7
2015-May-27 07:12N 37°39' E 024°30'10411.4
2015-May-26 22:04N 39°23' E 024°30'711.8
2015-May-26 21:30N 39°28' E 024°24'1212.3
2015-May-26 20:30N 39°37' E 024°14'1212.1
2015-May-26 19:32N 39°42' E 024°00'  
2015-May-21 11:06N 39°49' E 023°36'1414.6
2015-May-21 10:08N 39°44' E 023°54'1015.2
2015-May-21 09:29N 39°40' E 024°05'1814.6
2015-May-21 08:14N 39°29' E 024°24'1313.9
2015-May-21 07:20N 39°18' E 024°32'5713.7
2015-May-21 03:13N 38°22' E 024°42'2614.2
2015-May-21 01:24N 37°57' E 024°36'1214.3
2015-May-21 00:33N 37°48' E 024°25'1713.4
2015-May-20 23:17N 37°37' E 024°09'1013.8
2015-May-20 22:33N 37°35' E 023°57'1413.8
2015-May-20 21:33N 37°41' E 023°41'1312.6
2015-May-20 20:33N 37°52' E 023°33'0 0.3
2015-May-20 19:31N 37°52' E 023°33'0 0.0
2015-May-20 18:31N 37°52' E 023°33'0 0.0
2015-May-20 17:31N 37°52' E 023°33'0 0.1
2015-May-20 16:28N 37°52' E 023°33'0 0.2
2015-May-20 15:31N 37°52' E 023°33'0 0.1
2015-May-20 14:31N 37°52' E 023°33'0 0.1
2015-May-20 13:31N 37°52' E 023°33'0 0.1
2015-May-20 12:31N 37°52' E 023°33'0 0.1
2015-May-20 11:28N 37°52' E 023°33'0 0.1
2015-May-20 10:31N 37°52' E 023°33'0 0.1
2015-May-20 09:31N 37°52' E 023°33'0 0.0
2015-May-20 08:31N 37°52' E 023°33'0 0.0
2015-May-20 07:31N 37°52' E 023°33'0 0.0
2015-May-20 06:28N 37°52' E 023°33'0 0.0
2015-May-20 05:31N 37°52' E 023°33'0 0.0
2015-May-20 04:31N 37°52' E 023°33'0 0.0
2015-May-20 03:31N 37°52' E 023°33'0 0.0
2015-May-20 02:31N 37°52' E 023°33'0 0.0
2015-May-20 01:31N 37°52' E 023°33'0 0.1
2015-May-20 00:31N 37°52' E 023°33'0 0.0
2015-May-19 23:31N 37°52' E 023°33'0 0.0
2015-May-19 22:31N 37°52' E 023°33'  
Track history (hours):
 
Tides and Currents Weather Stations Pressure Air Temp Water Temp Dewpoint Dewpoint Depression Visibility Wind Speed Wind Dir Waves Ship Positions

Sun Globe

Last reported at 2015-May-29 22:08 UTC. Time now 2015-May-30 02:31 UTC.
Position N 37°40' E 008°24'.

Length 190 m; draft 10.2 m.

Type: Cargo ship. MMSI: 256415000.

Date/timePositionNaut miles runAvg speedWind from/ knotsBaromVisibWave heightAir tempDewpointWater temp
2015-May-29 22:08N 37°40' E 008°24'2514.2
2015-May-29 20:21N 37°43' E 008°56'1613.4
2015-May-29 19:11N 37°42' E 009°16'813.5
2015-May-29 18:33N 37°42' E 009°26'1413.5
2015-May-29 17:33N 37°41' E 009°44'1413.4
2015-May-29 16:33N 37°40' E 010°01'1313.0
2015-May-29 15:32N 37°39' E 010°17'1313.0
2015-May-29 14:32N 37°37' E 010°33'1313.2
2015-May-29 13:33N 37°34' E 010°49'1312.9
2015-May-29 12:33N 37°30' E 011°05'1313.2
2015-May-29 11:33N 37°24' E 011°20'1313.4
2015-May-29 10:33N 37°19' E 011°35'1313.3
2015-May-29 09:33N 37°13' E 011°50'1513.6
2015-May-29 08:27N 37°07' E 012°07'1213.1
2015-May-29 07:33N 37°02' E 012°21'1312.9
2015-May-29 06:33N 36°57' E 012°36'4013.4
2015-May-29 03:33N 36°45' E 013°23'1313.2
2015-May-29 02:33N 36°40' E 013°39'1313.1
2015-May-29 01:33N 36°36' E 013°54'1313.4
2015-May-29 00:33N 36°32' E 014°10'1313.4
2015-May-28 23:33N 36°29' E 014°26'1313.0
2015-May-28 22:33N 36°27' E 014°42'44412.3
2015-May-27 10:33N 37°02' E 023°54'3213.8
2015-May-27 08:15N 37°27' E 024°19'1413.7
2015-May-27 07:12N 37°39' E 024°30'10411.4
2015-May-26 22:04N 39°23' E 024°30'711.8
2015-May-26 21:30N 39°28' E 024°24'1212.3
2015-May-26 20:30N 39°37' E 024°14'1212.1
2015-May-26 19:32N 39°42' E 024°00'  
2015-May-21 11:06N 39°49' E 023°36'1414.6
2015-May-21 10:08N 39°44' E 023°54'1015.2
2015-May-21 09:29N 39°40' E 024°05'1814.6
2015-May-21 08:14N 39°29' E 024°24'1313.9
2015-May-21 07:20N 39°18' E 024°32'5713.7
2015-May-21 03:13N 38°22' E 024°42'2614.2
2015-May-21 01:24N 37°57' E 024°36'1214.3
2015-May-21 00:33N 37°48' E 024°25'1713.4
2015-May-20 23:17N 37°37' E 024°09'1013.8
2015-May-20 22:33N 37°35' E 023°57'1413.8
2015-May-20 21:33N 37°41' E 023°41'1312.6
2015-May-20 20:33N 37°52' E 023°33'0 0.3
2015-May-20 19:31N 37°52' E 023°33'0 0.0
2015-May-20 18:31N 37°52' E 023°33'0 0.0
2015-May-20 17:31N 37°52' E 023°33'0 0.1
2015-May-20 16:28N 37°52' E 023°33'0 0.2
2015-May-20 15:31N 37°52' E 023°33'0 0.1
2015-May-20 14:31N 37°52' E 023°33'0 0.1
2015-May-20 13:31N 37°52' E 023°33'0 0.1
2015-May-20 12:31N 37°52' E 023°33'0 0.1
2015-May-20 11:28N 37°52' E 023°33'0 0.1
2015-May-20 10:31N 37°52' E 023°33'0 0.1
2015-May-20 09:31N 37°52' E 023°33'0 0.0
2015-May-20 08:31N 37°52' E 023°33'0 0.0
2015-May-20 07:31N 37°52' E 023°33'0 0.0
2015-May-20 06:28N 37°52' E 023°33'0 0.0
2015-May-20 05:31N 37°52' E 023°33'0 0.0
2015-May-20 04:31N 37°52' E 023°33'0 0.0
2015-May-20 03:31N 37°52' E 023°33'0 0.0
2015-May-20 02:31N 37°52' E 023°33'0 0.0
2015-May-20 01:31N 37°52' E 023°33'0 0.1
2015-May-20 00:31N 37°52' E 023°33'0 0.0
2015-May-19 23:31N 37°52' E 023°33'0 0.0
2015-May-19 22:31N 37°52' E 023°33'  

Dump ship's entire track history